Location: Napoli
(40.8639°N, 14.2562°E)
Time: 01:00:07
(UTC+02:00)

ISS - Pass Details

Date: 08 October 2017
Orbit: 401 x 408 km, 51.6° (Epoch: 23 October)

Event Time Altitude Azimuth Distance (km) Brightness Sun altitude
Rises 19:38:28 0° 310° (NW) 2,327 1.0 -13.1°
Reaches altitude 10° 19:41:11 10° 334° (NNW) 1,468 -0.6 -13.6°
Maximum altitude 19:43:14 15° 13° (NNE) 1,186 -1.6 -14.0°
Enters shadow 19:44:24 13° 37° (NE) 1,282 -1.6 -14.2°
